Weather History for Red Wing, MN

Change the Weather History Date:

Monday, October 7, 2013

  Actual Average Record
Temperature  
Mean Temperature 54 °F -  
Max Temperature 68 °F 62 °F 87 °F (2003)
Min Temperature 41 °F 39 °F 21 °F (2001)
Degree Days  
Heating Degree Days 10    
Growing Degree Days 4 (Base 50)    
Moisture  
Dew Point 43 °F    
Average Humidity 77    
Maximum Humidity 100    
Minimum Humidity 33    
Precipitation  
Precipitation 0.03 in - - ()
Sea Level Pressure  
Sea Level Pressure 29.92 in    
Wind  
Wind Speed 3 mph (WNW)    
Max Wind Speed 13 mph    
Max Gust Speed 17 mph    
Visibility 10 miles    
Events      
Averages and records for this station are not official NWS values.
T = Trace of Precipitation, MM = Missing Value Source: NWS Daily Summary

Daily Weather History Graph

Daily Weather History Graph

Search for Another Location

Airport:

Trip Planner

Search our weather history database for the weather conditions in past years. The results will help you decide how hot, cold, wet, or windy it might be!

Date:

Astronomy

Oct. 07, 2013 Rise Set
Actual Time 7:15 AM CDT 6:39 PM CDT
Civil Twilight 6:46 AM CDT 7:08 PM CDT
Nautical Twilight 6:12 AM CDT 7:41 PM CDT
Astronomical Twilight 5:38 AM CDT 8:15 PM CDT
Moon 10:13 AM CDT (10/7) 8:16 PM CDT (10/7)
Length of Visible Light 12h 21m
Length of Day
11h 23m
Waxing Crescent, 9% of the Moon is Illuminated
Oct 7
Waxing Crescent
Oct 11
First Quarter
Oct 18
Full
Oct 26
Last Quarter
Nov 3
New

Hourly Weather History & Observations

Time (CDT) Temp. Windchill Dew Point Humidity Pressure Visibility Wind Dir Wind Speed Gust Speed Precip Events Conditions
12:15 AM 46.4 °F - 44.6 °F 93% 29.83 in 10.0 mi Calm Calm - N/A   Clear
12:35 AM 44.6 °F - 44.6 °F 100% 29.82 in 10.0 mi Calm Calm - N/A   Scattered Clouds
12:55 AM 44.6 °F - 44.6 °F 100% 29.83 in 10.0 mi Calm Calm - N/A   Mostly Cloudy
1:15 AM 46.4 °F 44.3 °F 44.6 °F 93% 29.83 in 7.0 mi West 4.6 mph - N/A   Overcast
1:35 AM 46.4 °F 44.3 °F 44.6 °F 93% 29.83 in 5.0 mi West 4.6 mph - N/A   Overcast
1:55 AM 46.4 °F 45.2 °F 44.6 °F 93% 29.84 in 7.0 mi West 3.5 mph - N/A   Overcast
2:15 AM 44.6 °F 43.1 °F 44.6 °F 100% 29.83 in 7.0 mi West 3.5 mph - N/A   Overcast
2:35 AM 44.6 °F - 44.6 °F 100% 29.83 in 5.0 mi Calm Calm - N/A   Overcast
2:55 AM 44.6 °F 43.1 °F 42.8 °F 93% 29.83 in 7.0 mi West 3.5 mph - N/A   Mostly Cloudy
3:15 AM 42.8 °F 39.3 °F 42.8 °F 100% 29.83 in 7.0 mi West 5.8 mph - N/A   Clear
3:35 AM 42.8 °F 41.1 °F 42.8 °F 100% 29.83 in 10.0 mi WNW 3.5 mph - N/A   Clear
3:55 AM 42.8 °F 41.1 °F 42.8 °F 100% 29.83 in 7.0 mi WNW 3.5 mph - N/A   Clear
4:15 AM 42.8 °F - 41.0 °F 93% 29.83 in 7.0 mi Calm Calm - N/A   Scattered Clouds
4:35 AM 42.8 °F - 41.0 °F 93% 29.83 in 10.0 mi Calm Calm - N/A   Clear
4:55 AM 41.0 °F - 39.2 °F 93% 29.83 in 7.0 mi Calm Calm - N/A   Clear
5:15 AM 42.8 °F - 41.0 °F 93% 29.84 in 10.0 mi Calm Calm - N/A   Scattered Clouds
5:35 AM 42.8 °F - 41.0 °F 93% 29.84 in 10.0 mi Calm Calm - N/A   Mostly Cloudy
5:55 AM 41.0 °F - 39.2 °F 93% 29.84 in 7.0 mi Calm Calm - N/A   Mostly Cloudy
6:15 AM 41.0 °F - 39.2 °F 93% 29.85 in 10.0 mi Calm Calm - N/A   Mostly Cloudy
6:35 AM 42.8 °F - 41.0 °F 93% 29.86 in 10.0 mi Calm Calm - N/A   Overcast
6:55 AM 42.8 °F - 42.8 °F 100% 29.86 in 10.0 mi Calm Calm - N/A   Overcast
7:15 AM 42.8 °F - 42.8 °F 100% 29.86 in 10.0 mi Calm Calm - N/A   Overcast
7:35 AM 42.8 °F - 42.8 °F 100% 29.87 in 10.0 mi Calm Calm - N/A   Mostly Cloudy
7:55 AM 42.8 °F - 42.8 °F 100% 29.87 in 10.0 mi Calm Calm - N/A   Clear
8:15 AM 44.6 °F 43.1 °F 42.8 °F 93% 29.88 in 10.0 mi West 3.5 mph - N/A   Clear
8:35 AM 46.4 °F 43.5 °F 44.6 °F 93% 29.89 in 10.0 mi West 5.8 mph - N/A   Clear
8:55 AM 46.4 °F 43.5 °F 44.6 °F 93% 29.90 in 10.0 mi WNW 5.8 mph - N/A   Clear
9:15 AM 48.2 °F - 44.6 °F 87% 29.91 in 10.0 mi WNW 4.6 mph - N/A   Clear
9:35 AM 50.0 °F - 46.4 °F 87% 29.92 in 10.0 mi West 6.9 mph - N/A   Clear
9:55 AM 53.6 °F - 46.4 °F 77% 29.92 in 10.0 mi WNW 5.8 mph - N/A   Clear
10:15 AM 53.6 °F - 46.4 °F 77% 29.93 in 10.0 mi WNW 3.5 mph - N/A   Clear
10:35 AM 55.4 °F - 46.4 °F 72% 29.93 in 10.0 mi West 6.9 mph - N/A   Clear
10:55 AM 55.4 °F - 46.4 °F 72% 29.94 in 10.0 mi West 4.6 mph - N/A   Clear
11:14 AM 59.0 °F - 48.2 °F 67% 29.94 in 10.0 mi West 5.8 mph - N/A   Clear
11:35 AM 60.8 °F - 46.4 °F 59% 29.94 in - WSW 5.8 mph - 0.03 in   Clear
11:55 AM 60.8 °F - 48.2 °F 63% 29.95 in 10.0 mi West 5.8 mph - N/A   Unknown
12:15 PM 62.6 °F - 46.4 °F 55% 29.95 in 10.0 mi West 8.1 mph - N/A   Clear
12:35 PM 62.6 °F - 46.4 °F 55% 29.95 in 10.0 mi West 6.9 mph - N/A   Clear
12:55 PM 64.4 °F - 46.4 °F 52% 29.94 in 10.0 mi WNW 5.8 mph - N/A   Clear
1:15 PM 64.4 °F - 42.8 °F 45% 29.94 in 10.0 mi NW 4.6 mph - N/A   Clear
1:35 PM 64.4 °F - 42.8 °F 45% 29.94 in 10.0 mi NW 6.9 mph - N/A   Clear
1:55 PM 66.2 °F - 44.6 °F 46% 29.94 in 10.0 mi West 11.5 mph - N/A   Clear
2:15 PM 66.2 °F - 42.8 °F 43% 29.94 in 10.0 mi West 5.8 mph 17.3 mph N/A   Clear
2:35 PM 66.2 °F - 41.0 °F 40% 29.94 in 10.0 mi West 12.7 mph - N/A   Clear
2:55 PM 66.2 °F - 41.0 °F 40% 29.95 in 10.0 mi West 9.2 mph - N/A   Clear
3:15 PM 66.2 °F - 39.2 °F 37% 29.95 in 10.0 mi West 11.5 mph - N/A   Clear
3:35 PM 66.2 °F - 39.2 °F 37% 29.95 in 10.0 mi West 10.4 mph - N/A   Clear
3:55 PM 68.0 °F - 37.4 °F 33% 29.95 in 10.0 mi WNW 9.2 mph - N/A   Clear
4:15 PM 66.2 °F - 37.4 °F 35% 29.95 in 10.0 mi West 9.2 mph - N/A   Clear
4:35 PM 66.2 °F - 37.4 °F 35% 29.96 in 10.0 mi West 5.8 mph - N/A   Clear
4:55 PM 66.2 °F - 37.4 °F 35% 29.95 in 10.0 mi NW 6.9 mph - N/A   Clear
5:15 PM 66.2 °F - 37.4 °F 35% 29.95 in 10.0 mi WNW 4.6 mph - N/A   Clear
5:35 PM 66.2 °F - 39.2 °F 37% 29.95 in 10.0 mi WNW 3.5 mph - N/A   Clear
5:55 PM 64.4 °F - 39.2 °F 40% 29.96 in 10.0 mi Calm Calm - N/A   Clear
6:15 PM 62.6 °F - 42.8 °F 48% 29.96 in 10.0 mi Calm Calm - N/A   Clear
6:35 PM 59.0 °F - 42.8 °F 55% 29.96 in 10.0 mi Calm Calm - N/A   Clear
6:55 PM 53.6 °F - 46.4 °F 77% 29.97 in 10.0 mi Calm Calm - N/A   Clear
7:15 PM 51.8 °F - 46.4 °F 82% 29.97 in 10.0 mi Calm Calm - N/A   Clear
7:34 PM 50.0 °F - 46.4 °F 87% 29.97 in 10.0 mi Calm Calm - N/A   Clear
7:55 PM 48.2 °F - 44.6 °F 87% 29.98 in 10.0 mi Calm Calm - N/A   Clear
8:15 PM 48.2 °F - 44.6 °F 87% 29.98 in 10.0 mi Calm Calm - N/A   Clear
8:34 PM 46.4 °F - 44.6 °F 93% 29.99 in 10.0 mi Calm Calm - N/A   Clear
8:55 PM 46.4 °F - 44.6 °F 93% 29.99 in 10.0 mi Calm Calm - N/A   Clear
9:15 PM 44.6 °F 43.1 °F 42.8 °F 93% 30.00 in 10.0 mi NE 3.5 mph - N/A   Clear
9:34 PM 44.6 °F - 42.8 °F 93% 30.00 in 10.0 mi Calm Calm - N/A   Clear
9:55 PM 44.6 °F 43.1 °F 42.8 °F 93% 30.00 in 10.0 mi ENE 3.5 mph - N/A   Clear
10:15 PM 44.6 °F 43.1 °F 42.8 °F 93% 30.00 in 10.0 mi East 3.5 mph - N/A   Clear
10:35 PM 44.6 °F - 42.8 °F 93% 30.00 in 10.0 mi Calm Calm - N/A   Clear
10:55 PM 44.6 °F 43.1 °F 42.8 °F 93% 30.00 in 10.0 mi East 3.5 mph - N/A   Clear
11:15 PM 44.6 °F - 42.8 °F 93% 30.00 in 10.0 mi Calm Calm - N/A   Clear
11:35 PM 44.6 °F - 42.8 °F 93% 30.00 in 10.0 mi Calm Calm - N/A   Clear
11:55 PM 44.6 °F - 42.8 °F 93% 30.00 in 10.0 mi Calm Calm - N/A   Clear